Wind_Speed
40 39 46 51 53 54 55 60 65 60 59 57 59 56 53 53 54 49 46 45 46 43 41 42 44 46 44 44 43 34 39 40 38
41 41 39 48 49 55 56 53 57 61 61 60 57 56 53 51 49 48 48 46 44 42 43 43 40 36 42 43 46 42 34 34 36
40 42 44 41 51 52 58 56 51 54 55 56 55 59 54 55 50 48 47 44 37 41 38 39 38 39 39 37 41 45 46 45 39
42 41 42 42 45 48 51 50 53 53 51 53 54 56 57 56 49 48 46 45 45 37 33 27 30 32 34 36 39 40 42 47 44
32 34 37 39 39 39 41 46 42 47 56 53 53 55 56 55 52 50 49 48 47 45 41 34 27 29 38 43 41 42 45 45 45
38 33 34 36 36 37 34 33 39 46 48 51 48 48 51 52 51 49 49 46 45 45 41 36 35 39 33 37 38 41 43 44 44
47 45 43 42 41 39 40 40 39 42 52 48 44 42 44 46 49 48 48 46 47 46 41 37 38 40 42 43 40 42 46 46 44
50 51 49 47 46 47 46 45 44 44 53 53 51 43 43 42 43 45 44 45 44 45 42 42 42 44 47 47 39 40 40 40 45
49 48 47 47 48 50 48 49 49 50 51 51 48 48 49 46 47 44 44 46 47 46 45 47 51 51 49 51 52 52 47 44 42
46 47 48 49 47 51 50 46 49 51 53 58 57 55 51 47 48 49 49 47 49 46 46 46 49 50 52 49 50 50 48 47 48
43 45 47 47 49 51 51 51 48 48 53 54 55 53 53 52 51 48 48 47 50 48 47 46 48 51 55 56 55 55 53 52 49
37 39 44 47 50 52 53 53 53 55 52 48 56 54 51 52 55 55 53 54 51 54 55 55 55 58 57 56 60 55 55 48 51
34 35 38 42 47 51 53 55 59 59 59 57 60 59 56 56 59 57 57 57 57 59 59 63 62 63 62 62 59 58 57 53 52
33 33 34 34 37 43 50 58 60 60 59 59 60 59 57 57 56 55 57 52 55 61 64 64 64 63 63 64 64 61 58 56 57
31 32 31 30 30 31 32 36 43 51 62 61 57 56 59 65 68 65 53 59 56 54 54 54 61 57 61 61 61 60 61 60 62
35 34 33 31 30 30 30 30 31 33 37 53 57 51 53 54 63 59 61 61 56 54 60 58 59 58 57 59 61 61 63 64 66
40 40 39 38 37 36 35 35 35 35 35 35 37 42 48 55 57 64 59 63 67 70 68 65 63 64 63 64 69 70 66 64 65
46 45 44 44 43 43 41 41 41 42 41 40 39 39 41 41 51 60 65 67 67 68 71 72 69 70 69 68 70 74 72 68 66
51 51 50 50 50 50 50 49 49 49 49 48 48 46 47 46 46 48 50 52 54 60 64 64 64 65 64 62 60 58 57 57 55
57 57 56 56 56 56 55 56 56 56 56 56 55 55 55 55 54 55 56 55 56 57 56 56 56 57 57 56 56 55 55 56 56
Wind_Direction
233 232 235 233 229 232 233 232 231 234 234 236 236 237 236 240 241 245 252 253 255 253 253 258 261 265 264 261 261 259 258 244 246
230 230 233 229 228 229 236 232 233 231 235 238 238 235 235 236 239 242 247 253 255 255 252 259 257 258 261 258 254 240 241 246 249
232 231 234 237 233 232 233 233 233 227 230 235 234 233 236 239 241 247 247 247 248 250 252 260 259 262 261 253 252 248 239 245 240
238 238 239 239 236 235 238 237 234 228 226 229 234 237 237 242 239 240 242 247 246 248 248 246 261 265 259 250 248 243 241 242 241
236 235 237 238 236 242 237 235 226 226 227 233 235 237 236 238 238 239 241 243 246 243 244 237 240 252 251 250 253 245 240 249 251
248 239 246 245 246 245 239 228 227 224 224 227 227 231 234 234 235 235 238 239 241 240 244 236 228 237 244 249 247 249 249 252 256
247 245 247 248 249 248 243 237 231 231 228 228 222 224 230 233 235 236 237 238 241 243 239 231 233 238 242 245 249 249 247 249 250
243 246 246 243 242 241 240 238 233 229 231 233 233 234 235 236 237 237 235 233 236 241 237 229 235 240 247 245 244 245 245 248 249
241 242 242 240 238 240 239 237 236 233 232 236 240 242 240 240 241 242 241 239 236 237 235 237 233 236 242 248 251 251 253 252 252
239 238 237 235 233 234 237 236 236 236 234 237 240 245 246 243 245 242 238 235 240 240 236 237 235 236 239 242 251 254 254 252 252
239 240 236 236 233 233 234 234 235 235 233 232 235 238 243 244 239 239 235 236 236 238 231 235 240 240 241 237 240 244 247 251 255
235 239 238 234 233 234 233 236 235 238 237 238 236 231 237 243 245 243 240 241 237 237 232 230 231 233 234 239 242 244 242 252 250
240 236 235 235 234 234 236 234 236 240 240 238 242 244 249 246 246 246 242 243 241 235 236 235 234 235 238 241 244 246 248 256 259
236 235 234 234 234 235 235 236 239 241 242 241 243 243 244 241 246 249 250 242 243 240 241 234 240 243 245 246 249 253 256 259 262
234 233 231 230 230 232 234 235 239 242 240 244 247 247 247 241 241 245 247 245 248 242 244 245 242 248 249 251 252 252 255 257 261
236 237 236 234 232 231 234 237 239 241 239 240 245 246 242 237 238 240 237 236 238 247 252 252 249 251 259 261 262 262 265 264 262
237 238 239 238 237 236 235 237 240 242 242 243 244 244 245 243 242 239 241 242 242 243 249 248 248 249 253 255 256 259 262 262 263
241 242 242 243 243 242 242 242 242 244 246 247 247 247 247 244 244 246 245 249 246 249 250 253 254 255 258 258 259 259 261 259 261
243 243 244 244 244 245 244 243 243 244 246 246 247 248 249 251 249 245 245 247 248 249 250 253 254 255 256 255 254 253 253 254 254
244 245 246 247 248 248 248 247 246 246 245 246 248 248 249 249 249 251 253 251 251 251 251 252 253 253 254 254 255 254 253 254 254
Height
10781 10785 10789 10793 10798 10799 10801 10807 10813 10819 10824 10829 10833 10837 10840 10844 10849 10853 10857 10856 10858 10860 10862 10862 10863 10864 10866 10866 10867 10869 10871 10873 10875
10774 10778 10782 10787 10790 10792 10795 10803 10806 10812 10817 10821 10826 10829 10832 10836 10841 10847 10849 10850 10851 10853 10855 10856 10857 10858 10858 10860 10862 10866 10866 10868 10869
10769 10771 10774 10780 10784 10785 10789 10795 10800 10804 10808 10812 10818 10822 10826 10829 10836 10841 10842 10844 10844 10846 10847 10848 10849 10849 10850 10852 10854 10858 10860 10862 10862
10766 10767 10770 10775 10778 10779 10783 10789 10794 10798 10800 10805 10810 10815 10820 10822 10829 10833 10835 10837 10838 10838 10840 10842 10842 10842 10842 10844 10847 10850 10852 10854 10855
10761 10762 10764 10768 10773 10776 10779 10783 10787 10790 10795 10799 10803 10807 10811 10814 10821 10824 10827 10829 10831 10831 10832 10834 10835 10835 10836 10838 10839 10842 10844 10845 10848
10757 10758 10760 10763 10766 10770 10774 10778 10782 10784 10788 10791 10794 10799 10803 10807 10812 10816 10818 10821 10822 10824 10825 10826 10827 10828 10828 10829 10832 10834 10837 10839 10841
10748 10752 10755 10758 10759 10762 10766 10771 10775 10778 10782 10784 10787 10791 10796 10800 10804 10808 10809 10812 10814 10815 10817 10818 10820 10820 10821 10822 10824 10826 10829 10832 10834
10739 10742 10746 10750 10752 10754 10757 10762 10766 10770 10774 10777 10781 10784 10788 10792 10795 10798 10801 10803 10806 10807 10809 10811 10812 10812 10813 10814 10816 10819 10821 10823 10825
10729 10733 10736 10740 10744 10746 10750 10754 10758 10762 10765 10768 10772 10775 10778 10783 10786 10789 10791 10793 10796 10799 10801 10803 10805 10806 10807 10807 10809 10811 10814 10815 10816
10721 10724 10726 10730 10735 10738 10741 10745 10749 10753 10758 10760 10763 10766 10770 10773 10776 10780 10783 10784 10787 10790 10793 10796 10797 10799 10800 10801 10801 10803 10805 10806 10807
10714 10715 10718 10721 10725 10730 10733 10737 10740 10743 10748 10750 10754 10758 10761 10763 10767 10770 10773 10777 10780 10782 10784 10787 10789 10791 10792 10792 10794 10795 10796 10797 10797
10706 10708 10709 10712 10716 10720 10724 10727 10731 10734 10737 10741 10743 10747 10751 10753 10756 10760 10764 10767 10770 10774 10775 10775 10777 10779 10779 10781 10783 10784 10784 10785 10787
10699 10700 10701 10704 10707 10711 10714 10718 10721 10724 10728 10732 10734 10737 10740 10743 10745 10748 10751 10754 10758 10761 10763 10764 10765 10767 10768 10769 10770 10772 10773 10775 10776
10693 10694 10696 10697 10699 10702 10704 10708 10711 10715 10718 10720 10723 10727 10730 10733 10734 10736 10739 10743 10745 10747 10749 10751 10753 10755 10757 10758 10760 10761 10763 10764 10766
10687 10688 10690 10691 10693 10695 10697 10699 10700 10703 10706 10708 10712 10714 10717 10721 10724 10727 10729 10732 10735 10735 10737 10739 10741 10744 10746 10747 10749 10750 10752 10754 10756
10680 10682 10684 10685 10686 10688 10690 10691 10692 10693 10694 10697 10701 10703 10704 10707 10711 10714 10717 10720 10721 10724 10726 10729 10731 10734 10736 10737 10738 10740 10742 10743 10743
10672 10674 10676 10678 10679 10681 10683 10683 10685 10686 10687 10689 10691 10692 10694 10697 10699 10703 10705 10708 10709 10710 10712 10716 10717 10720 10722 10723 10725 10727 10728 10728 10728
10662 10664 10666 10668 10670 10672 10674 10676 10677 10678 10679 10681 10683 10684 10684 10687 10688 10690 10693 10695 10696 10697 10699 10701 10703 10706 10708 10709 10711 10711 10712 10712 10713
10651 10653 10655 10657 10659 10661 10663 10665 10667 10668 10668 10670 10672 10674 10674 10676 10677 10678 10681 10681 10683 10683 10686 10688 10690 10689 10692 10694 10694 10696 10698 10698 10700
10638 10641 10643 10645 10647 10649 10651 10653 10655 10656 10657 10659 10660 10662 10663 10664 10666 10667 10668 10669 10670 10670 10674 10675 10677 10677 10678 10680 10680 10682 10684 10685 10686